Regional Weather Roundup
Issued by NWS

Home | Current Version | Previous Version | Graphics & Text | Print | Product List | Glossary Off
Versions: 1 2 3 4 5 6 7 8 9 10 11 12 13 14 15 16 17 18 19 20 21 22 23 24 25 26 27 28 29 30 31 32 33 34 35 36 37 38 39 40 41 42 43 44 45 46 47 48 49 50

000
ASUS43 KDMX 271607
RWRIA

WEATHER ROUNDUP FOR IOWA
NATIONAL WEATHER SERVICE DES MOINES IA
1100 AM CDT MON APR 27 2015

NOTE: "FAIR" INDICATES FEW OR NO CLOUDS BELOW 12,000 FEET WITH NO
SIGNIFICANT WEATHER AND/OR OBSTRUCTIONS TO VISIBILITY.

* - THESE STATIONS ARE NOT NWS STATIONS...THUS NOT UNDER NWS
QUALITY CONTROL.  THEY ALSO DO NOT REPORT WEATHER SUCH
AS PRECIPITATION OR FOG.

IAZ001>003-012>014-020>022-031>034-043>046-271700-
   NORTHWEST IOWA

CITY           SKY/WX    TMP DP  RH WIND       PRES   REMARKS
CARROLL *      SUNNY     59  30  33 N12       30.20F
CHEROKEE *     SUNNY     61  30  31 N7        30.22S
DENISON *      SUNNY     59  34  38 VRB7      30.19F
LE MARS *      SUNNY     61  27  27 NE8       30.24S
ORANGE CITY *  SUNNY     59  27  29 NE3       30.23S
SHELDON *      SUNNY     61  23  23 VRB6G14   30.22S
SIOUX CITY     SUNNY     62  27  26 VRB5      30.22F
SPENCER        SUNNY     62  26  25 NE13      30.23S
STORM LAKE *   SUNNY     59  27  29 NE13G18   30.22S
$$

IAZ055>058-069>071-079>083-090>094-271700-
   SOUTHWEST IOWA

CITY           SKY/WX    TMP DP  RH WIND       PRES   REMARKS
ATLANTIC *     SUNNY     59  32  36 NE8       30.21S
AUDUBON *      SUNNY     61  27  27 N8        30.21S
CLARINDA *     SUNNY     61  34  36 N9G16     30.21F
COUNCIL BLFS * SUNNY     59  36  41 NE10      30.21F
CRESTON *      SUNNY     59  30  33 NE9G16    30.20F
HARLAN  *      SUNNY     59  32  36 NE9       30.24F
LAMONI         SUNNY     61  36  39 N10       30.19S
RED OAK *      SUNNY     59  32  36 NE10      30.21S
SHENANDOAH *   SUNNY     61  30  31 NE10G18   30.21S
$$

IAZ047>049-059>061-072>074-084-271700-
   CENTRAL IOWA

CITY           SKY/WX    TMP DP  RH WIND       PRES   REMARKS
AMES           SUNNY     59  35  40 VRB7      30.20S
ANKENY *       SUNNY     59  36  41 N9        30.20R
CHARITON *     SUNNY     59  34  38 N12       30.19S
DES MOINES     MOSUNNY   62  28  27 N8        30.20R
GRINNELL*      SUNNY     55  36  47 NE8       30.20R
KNOXVILLE *    SUNNY     57  34  41 N8        30.18R
MARSHALLTOWN   SUNNY     56  34  43 NE12      30.19R
PELLA *        SUNNY     59  43  55 N5        30.20R
PERRY *          N/A     59  32  36 N9        30.20S
$$

IAZ004>006-015-016-023>025-035-036-271700-
   NORTH CENTRAL IOWA

CITY           SKY/WX    TMP DP  RH WIND       PRES   REMARKS
ALGONA *       SUNNY     55  30  38 N9        30.23F
CLARION *      SUNNY     57  30  35 N12       30.21S
ESTHERVILLE    SUNNY     58  30  34 NE9G18    30.23S
FORT DODGE *   SUNNY     57  34  41 N8        30.22F
MASON CITY     SUNNY     56  33  42 N9        30.24R
FOREST CITY *  SUNNY     54  32  43 N6        30.23S
IOWA FALLS *     N/A     55  32  41 N12       30.21S
$$

IAZ007>011-017>019-026>030-037>042-050>054-066-271700-
   NORTHEAST IOWA

CITY           SKY/WX    TMP DP  RH WIND       PRES   REMARKS
CEDAR RAPIDS   SUNNY     55  37  50 E8        30.18S
CHARLES CITY * SUNNY     54  32  43 VRB5      30.23R
CLINTON *      SUNNY     54  34  47 NE10      30.20R
DECORAH *      SUNNY     54  30  40 VRB5      30.20F
DUBUQUE        SUNNY     54  32  43 NE9       30.18F
MONTICELLO *   SUNNY     55  34  44 NE7G13    30.18F
OELWEIN *      SUNNY     54  34  47 E3G12     30.21S
WATERLOO       SUNNY     55  33  43 VRB6      30.20S
$$

IAZ064-065-067-068-078-271700-
   EAST CENTRAL IOWA

CITY           SKY/WX    TMP DP  RH WIND       PRES   REMARKS
DAVENPORT      SUNNY     55  35  47 NE9       30.18S
IOWA CITY      SUNNY     56  37  49 E10       30.20R
MT. PLEASANT * SUNNY     55  36  47 NE10      30.17R
MUSCATINE *    SUNNY     57  36  44 NE8       30.18S
QUAD CITIES    SUNNY     56  34  43 VRB3      30.17S
$$

IAZ062-063-075>077-085>089-095>099-271700-
   SOUTHEAST IOWA

CITY           SKY/WX    TMP DP  RH WIND       PRES   REMARKS
BURLINGTON     SUNNY     57  37  47 N8        30.16R
FAIRFIELD *    SUNNY     55  37  50 NE9G15    30.18R
FORT MADISON * SUNNY     55  37  50 NE8       30.17R
KEOKUK *       SUNNY     57  39  51 NE8       30.16R
OSKALOOSA *      N/A     57  37  47 N9        30.19R
CENTERVILLE *  SUNNY     59  36  41 N10       30.20R
OTTUMWA        SUNNY     59  38  45 N10       30.18R
WASHINGTON *   SUNNY     57  37  47 NE12G17   30.18R
$$

ABBREVIATIONS USED IN REMARKS
   TC - TEMPERATURES IN CELSIUS
  WCI - WIND CHILL INDEX
   HX - HEAT INDEX
  VSB - VISIBILITY
$$



USA.gov is the U.S. government's official web portal to all federal, state and local government web resources and services.